Showing default

DMSP 5D-2 F11 (USA 73), 21798

Orbit data source: Space-Track

DMSP 5D-2 F11 (USA 73), 21798 is a payload satellite owned by USAF SSD (US) in SSO that was launched on Thu, 28 Nov 1991 UTC via an ATLAS E launch vehicle from the Air Force Western Test Range (AFWTR). Payload-class satellites include a variety of spacecraft equipped with specific instruments for various scientific and technological missions. These include communications satellites like Starlink; space stations such as the ISS; scientific satellites like the Hubble; Earth observation satellites from companies like Planet Labs, Umbra, and HawkEye 360; GPS; miniature CubeSats for education and research; and military/defense satellites.

Loading next visibility...
Identifier
21798, 1991-082A
Orbit
SSO
Country
Flag of USUS
Related business
Manufacturer
GE/East Windsor
Mission
Non-operational Defense Weather
Bus & Motor
BLOCK 5D, STAR 37S
Mass
1,456 kg wet, 749 kg dry
Launch date (UTC)
1991-11-28 (34 years ago)
Launch vehicle
ATLAS E
Launch site
Air Force Western Test Range (AFWTR)
Object type
Payload
Rocket body
Debris
Shape & HBR
Cyl + 1 Pan, 2.5 m
Radar Cross Section
4.290 m², Large (>1 m²)

Expand to show TLE details & history
Last TLE update: 11 hours ago

TLE from 11 hours ago
0 DMSP 5D-2 F11 (USA 73)
1 21798U 91082A   25349.95317521  .00000108  00000-0  74517-4 0  9990
2 21798  98.7113  17.0329 0013741  78.7519 281.5200 14.17386989759176
Epoch: 2025-12-15T22:52Z
TLE epoch observation values (Epoch: 2025-12-15T22:52:34.338Z)
Latitude
0.00004°
Longitude
-50.95453°
Altitude
835.148 km
Speed
7.436 km/s
True Right ascension
01h 08m 07s
True Declination
0° 00' 00"
Sunlit
Object was in daylight at epoch
Visualization orbit readout
Latitude
Unknown
Longitude
Unknown
Altitude
Unknown
Speed
Unknown
Apparent Right ascension
Unknown
Apparent Declination
Unknown
Sunlit
N/A
Visualization observer readout
Local Sidereal Time
08:40:39
Azimuth
Unknown
Elevation
Unknown
Doppler factor
Unknown
Orbital elements
Apogee altitude
841.272 km
Perigee altitude
821.459 km
Semi-major axis
7,209.503 km
Eccentricity
0.00137
Inclination
98.7113°
RAAN
17.0329°
Arg. of periapsis
78.7519°
True anomaly
281.36566°
Mean anomaly
281.52°
Eccentric anomaly
281.44283°
Mean motion
3.54556 °/min
Orbital period
101.54 mins
BSTAR
0.000074517
Loading maneuver chart data...
Computing Atmospheric mass density...

Documentation

Showing up to 5 results
|